Regional Weather Roundup
Issued by NWS

Home | Current Version | Previous Version | Text Only | Print | Product List | Glossary On
Versions: 1 2 3 4 5 6 7 8 9 10 11 12 13 14 15 16 17 18 19 20 21 22 23 24 25 26 27 28 29 30 31 32 33 34 35 36 37 38 39 40 41 42 43 44 45 46 47 48 49 50
000
ASUS44 KJAN 251610
RWRMS

MISSISSIPPI HOURLY WEATHER ROUNDUP
NATIONAL WEATHER SERVICE JACKSON MS
1000 AM CST SAT FEB 25 2017

NOTE: "FAIR: INDICATES FEW OR NO CLOUDS BELOW 12,000 FEET WITH NO
SIGNIFICANT WEATHER AND/OR OBSTRUCTIONS TO VISIBILITY.

MSZ001>002-007>008-010>013-018>021-025>028-034>036-251700-
NORTHWEST MISSISSIPPI

CITY           SKY/WX    TMP DP  RH WIND       PRES   REMARKS
BATESVILLE     FAIR      42  25  51 N12G17    30.14R
CLEVELAND      FAIR      42  24  47 NW10G18   30.16R
GREENWOOD      SUNNY     45  23  42 NW8       30.14R
GREENVILLE     SUNNY     44  24  45 N12       30.16R
OLIVE BRANCH   SUNNY    N/A N/A N/A N10       30.10R
OXFORD         FAIR      41  21  45 W12       30.13R
TUNICA         SUNNY     39  23  52 N15       30.16R WCI  31
WINONA         FAIR      44  27  52 N8        30.12R
$$

MSZ003>006-009-014>017-022>024-029>033-037>039-251700-
NORTHEAST MISSISSIPPI

CITY           SKY/WX    TMP DP  RH WIND       PRES   REMARKS
COLUMBUS AFB   SUNNY     48  30  50 NW12G18   30.08R
CORINTH        FAIR      43  25  49 NW13      30.07S
GOLDN TRIANGLE SUNNY     48  28  46 NW9       30.05R
STARKVILLE     FAIR      45  27  49 NW9G17    30.11R
TUPELO         SUNNY     43  21  41 NW12      30.09R
$$

MSZ040-058-251700-
CENTRAL MISSISSIPPI

CITY           SKY/WX    TMP DP  RH WIND       PRES   REMARKS
JACKSON INTL   SUNNY     52  32  46 NW9       30.12R
JACKSON HAWKNS SUNNY     50  29  44 NW9       30.12R
MADISON          N/A    N/A N/A N/A NW10G16   30.11R
MERIDIAN KEY   SUNNY     57  35  43 N12       30.07R
MERIDIAN NAS   SUNNY     55  30  38 NW15      30.07R
VICKSBURG VKS  SUNNY     50  30  46 N7G16     30.13R
$$

MSZ059>079-251700-
SOUTH MISSISSIPPI

CITY           SKY/WX    TMP DP  RH WIND       PRES   REMARKS
BROOKHAVEN     FAIR      54  32  43 NW8       30.11R
HATTIESBURG    SUNNY     58  33  39 N10       30.07R
LAUREL         FAIR      57  33  40 NW12      30.07R
MCCOMB         SUNNY     56  26  31 NW16      30.09R
NATCHEZ        SUNNY     52  28  40 NW14      30.13S
PINE BELT      SUNNY     57  32  38 N13G18    30.08R
$$

MSZ080>082-251700-
COASTAL MISSISSIPPI

CITY           SKY/WX    TMP DP  RH WIND       PRES   REMARKS
BAY ST LOUIS   SUNNY     63  28  27 N12G18    30.04R
BILOXI         SUNNY     64  35  33 N3        30.01R
PASCAGOULA     SUNNY     68  32  26 N15       30.00R
GULFPORT       SUNNY     65  33  30 N15       30.02R
$$

LAZ007>009-015>016-023>026-251700-
NORTHEAST LOUISIANA

CITY           SKY/WX    TMP DP  RH WIND       PRES   REMARKS
BASTROP          N/A     47  25  41 N6        30.18S
TALLULAH/VBURG SUNNY     49  31  49 N8G17     30.16R
VIDALIA        FAIR      51  30  44 N10       30.15R
$$



USA.gov is the U.S. government's official web portal to all federal, state and local government web resources and services.